| time (UTC) | temp F | wind direction | speed knots | gust knots | rain 1hr in | rain 24hr in | rain mn in | humidity % | barometer mb |
| 20260906203817 | 100 | 127 | 5.2 | 7.8 | 0.00 | 0.00 | 0.00 | 34 | 1012.3 |
| 20260906202818 | 100 | 208 | 6.1 | 7.8 | 0.00 | 0.00 | 0.00 | 34 | 1012.4 |
| 20260906201818 | 100 | 199 | 5.2 | 7.0 | 0.00 | 0.00 | 0.00 | 33 | 1012.5 |
| 20260906200841 | 99 | 155 | 6.1 | 8.7 | 0.00 | 0.00 | 0.00 | 35 | 1012.6 |
| 20260906195818 | 99 | 190 | 4.3 | 7.8 | 0.00 | 0.00 | 0.00 | 33 | 1012.8 |
| 20260906194838 | 98 | 334 | 1.7 | 2.6 | 0.00 | 0.00 | 0.00 | 34 | 1012.9 |
| 20260906193818 | 98 | 181 | 2.6 | 3.5 | 0.00 | 0.00 | 0.00 | 35 | 1013.1 |
| 20260906192818 | 99 | 220 | 3.5 | 7.0 | 0.00 | 0.00 | 0.00 | 34 | 1013.2 |
| 20260906191819 | 98 | 171 | 6.1 | 8.7 | 0.00 | 0.00 | 0.00 | 36 | 1013.3 |
| 20260906190819 | 98 | 115 | 5.2 | 7.0 | 0.00 | 0.00 | 0.00 | 35 | 1013.4 |
| 20260906185839 | 99 | 243 | 4.3 | 7.8 | 0.00 | 0.00 | 0.00 | 37 | 1013.5 |
| 20260906184819 | 98 | 208 | 2.6 | 4.3 | 0.00 | 0.00 | 0.00 | 36 | 1013.6 |
| 20260906183819 | 98 | 156 | 4.3 | 6.1 | 0.00 | 0.00 | 0.00 | 37 | 1013.8 |
| 20260906182819 | 0 | 172 | 3.5 | 5.2 | 0.00 | 0.00 | 0.00 | ||
| 20260906181816 | 96 | 130 | 3.5 | 6.1 | 0.00 | 0.00 | 0.00 | 39 | 1014.1 |
| 20260906180840 | 96 | 192 | 4.3 | 6.1 | 0.00 | 0.00 | 0.00 | 40 | 1014.2 |
| 20260906175840 | 96 | 176 | 5.2 | 7.8 | 0.00 | 0.00 | 0.00 | 39 | 1014.4 |
| 20260906174840 | 96 | 89 | 3.5 | 5.2 | 0.00 | 0.00 | 0.00 | 41 | 1014.5 |
| 20260906173820 | 96 | 119 | 0.9 | 2.6 | 0.00 | 0.00 | 0.00 | 40 | 1014.7 |
| 20260906172817 | 95 | 242 | 0.9 | 1.7 | 0.00 | 0.00 | 0.00 | 41 | 1014.9 |
| 20260906171817 | 94 | 162 | 0.9 | 1.7 | 0.00 | 0.00 | 0.00 | 43 | 1015.0 |
| 20260906170820 | 94 | 61 | 0.9 | 2.6 | 0.00 | 0.00 | 0.00 | 43 | 1015.2 |
| 20260906165821 | 94 | 192 | 2.6 | 3.5 | 0.00 | 0.00 | 0.00 | 44 | 1015.4 |
| 20260906164817 | 94 | 23 | 1.7 | 2.6 | 0.00 | 0.00 | 0.00 | 44 | 1015.4 |
| 20260906163818 | 94 | 148 | 1.7 | 2.6 | 0.00 | 0.00 | 0.00 | 43 | 1015.6 |
| 20260906162817 | 94 | 28 | 0.9 | 1.7 | 0.00 | 0.00 | 0.00 | 43 | 1015.5 |
| 20260906161818 | 93 | 120 | 1.7 | 2.6 | 0.00 | 0.00 | 0.00 | 45 | 1015.5 |
| 20260906160821 | 93 | 211 | 1.7 | 3.5 | 0.00 | 0.00 | 0.00 | 46 | 1015.5 |
| 20260906155818 | 92 | 162 | 0.9 | 2.6 | 0.00 | 0.00 | 0.00 | 46 | 1015.4 |
| 20260906154839 | 92 | 290 | 1.7 | 3.5 | 0.00 | 0.00 | 0.00 | 46 | 1015.4 |
| 20260906153818 | 91 | 169 | 1.7 | 2.6 | 0.00 | 0.00 | 0.00 | 47 | 1015.3 |
| 20260906152818 | 91 | 230 | 2.6 | 4.3 | 0.00 | 0.00 | 0.00 | 48 | 1015.3 |
| 20260906151819 | 90 | 214 | 3.5 | 5.2 | 0.00 | 0.00 | 0.00 | 49 | 1015.3 |
| 20260906150819 | 90 | 242 | 3.5 | 4.3 | 0.00 | 0.00 | 0.00 | 50 | 1015.3 |
| 20260906145819 | 89 | 215 | 3.5 | 5.2 | 0.00 | 0.00 | 0.00 | 51 | 1015.3 |
| 20260906144818 | 89 | 238 | 2.6 | 5.2 | 0.00 | 0.00 | 0.00 | 52 | 1015.3 |
| 20260906143819 | 88 | 235 | 2.6 | 3.5 | 0.00 | 0.00 | 0.00 | 52 | 1015.3 |
| 20260906142819 | 87 | 260 | 1.7 | 2.6 | 0.00 | 0.00 | 0.00 | 53 | 1015.3 |
| 20260906141819 | 87 | 222 | 4.3 | 5.2 | 0.00 | 0.00 | 0.00 | 53 | 1015.3 |
| 20260906140820 | 86 | 244 | 2.6 | 3.5 | 0.00 | 0.00 | 0.00 | 54 | 1015.2 |
| 20260906135820 | 85 | 231 | 3.5 | 5.2 | 0.00 | 0.00 | 0.00 | 56 | 1015.1 |
| 20260906134840 | 84 | 234 | 2.6 | 4.3 | 0.00 | 0.00 | 0.00 | 57 | 1015.0 |
| 20260906133817 | 83 | 228 | 1.7 | 2.6 | 0.00 | 0.00 | 0.00 | 58 | 1015.0 |
| 20260906132817 | 82 | 230 | 1.7 | 1.7 | 0.00 | 0.00 | 0.00 | 60 | 1015.0 |
| 20260906131817 | 82 | 181 | 1.7 | 1.7 | 0.00 | 0.00 | 0.00 | 60 | 1014.9 |
| 20260906130817 | 82 | 172 | 0.0 | 0.9 | 0.00 | 0.00 | 0.00 | 60 | 1014.8 |
| 20260906125832 | 82 | 218 | 1.7 | 2.6 | 0.00 | 0.00 | 0.00 | 61 | 1014.8 |
| 20260906124832 | 81 | 185 | 0.9 | 1.7 | 0.00 | 0.00 | 0.00 | 60 | 1014.7 |
| 20260906123832 | 81 | 199 | 0.0 | 0.0 | 0.00 | 0.00 | 0.00 | 61 | 1014.6 |
| 20260906122818 | 81 | 195 | 0.9 | 0.9 | 0.00 | 0.00 | 0.00 | 62 | 1014.5 |
| 20260906121818 | 81 | 170 | 0.9 | 0.9 | 0.00 | 0.00 | 0.00 | 62 | 1014.4 |
| 20260906120818 | 81 | 173 | 0.0 | 0.0 | 0.00 | 0.00 | 0.00 | 62 | 1014.4 |
| 20260906115818 | 81 | 171 | 0.9 | 0.9 | 0.00 | 0.00 | 0.00 | 61 | 1014.3 |
| 20260906114818 | 81 | 146 | 0.9 | 1.7 | 0.00 | 0.00 | 0.00 | 61 | 1014.2 |
| 20260906113839 | 81 | 158 | 1.7 | 2.6 | 0.00 | 0.00 | 0.00 | 60 | 1014.1 |
| 20260906112839 | 81 | 166 | 0.9 | 1.7 | 0.00 | 0.00 | 0.00 | 60 | 1014.0 |
| 20260906111819 | 81 | 158 | 1.7 | 2.6 | 0.00 | 0.00 | 0.00 | 61 | 1013.9 |
| 20260906110819 | 81 | 176 | 1.7 | 1.7 | 0.00 | 0.00 | 0.00 | 60 | 1013.8 |
| 20260906105819 | 81 | 0.0 | 0.0 | 0.00 | 0.00 | 0.00 | 61 | 1013.9 | |
| 20260906104819 | 81 | 153 | 1.7 | 2.6 | 0.00 | 0.00 | 0.00 | 61 | 1013.8 |
| 20260906103819 | 82 | 118 | 0.9 | 1.7 | 0.00 | 0.00 | 0.00 | 60 | 1013.6 |
| 20260906102819 | 82 | 165 | 0.9 | 0.9 | 0.00 | 0.00 | 0.00 | 60 | 1013.6 |
| 20260906101820 | 82 | 156 | 0.0 | 0.9 | 0.00 | 0.00 | 0.00 | 59 | 1013.6 |
| 20260906100819 | 82 | 0.0 | 0.0 | 0.00 | 0.00 | 0.00 | 59 | 1013.6 | |
| 20260906095820 | 82 | 124 | 1.7 | 2.6 | 0.00 | 0.00 | 0.00 | 58 | 1013.5 |
| 20260906094820 | 83 | 173 | 0.9 | 1.7 | 0.00 | 0.00 | 0.00 | 57 | 1013.6 |
| 20260906093820 | 83 | 161 | 0.9 | 0.9 | 0.00 | 0.00 | 0.00 | 56 | 1013.5 |
| 20260906092840 | 84 | 173 | 1.7 | 1.7 | 0.00 | 0.00 | 0.00 | 55 | 1013.4 |
| 20260906091841 | 84 | 153 | 2.6 | 2.6 | 0.00 | 0.00 | 0.00 | 54 | 1013.5 |
| 20260906090821 | 84 | 142 | 1.7 | 1.7 | 0.00 | 0.00 | 0.00 | 54 | 1013.5 |
| 20260906085821 | 84 | 133 | 0.0 | 0.0 | 0.00 | 0.00 | 0.00 | 54 | 1013.5 |
| 20260906084821 | 84 | 156 | 0.9 | 1.7 | 0.00 | 0.00 | 0.00 | 54 | 1013.5 |
| 20260906083820 | 85 | 151 | 0.9 | 0.9 | 0.00 | 0.00 | 0.00 | 53 | 1013.4 |
| 20260906082821 | 85 | 195 | 0.9 | 0.9 | 0.00 | 0.00 | 0.00 | 53 | 1013.3 |
| 20260906081821 | 85 | 223 | 0.9 | 1.7 | 0.00 | 0.00 | 0.00 | 52 | 1013.3 |
| 20260906080821 | 85 | 199 | 0.9 | 1.7 | 0.00 | 0.00 | 0.00 | 52 | 1013.3 |
| 20260906075821 | 85 | 173 | 0.9 | 1.7 | 0.00 | 0.00 | 0.00 | 51 | 1013.3 |
| 20260906074821 | 86 | 163 | 0.9 | 1.7 | 0.00 | 0.00 | 0.00 | 51 | 1013.3 |
| 20260906073822 | 86 | 175 | 0.9 | 0.9 | 0.00 | 0.00 | 0.00 | 51 | 1013.3 |
| 20260906072821 | 86 | 0.0 | 0.0 | 0.00 | 0.00 | 0.00 | 51 | 1013.3 | |
| 20260906071821 | 86 | 154 | 0.9 | 0.9 | 0.00 | 0.00 | 0.00 | 50 | 1013.3 |
| 20260906070822 | 86 | 160 | 0.9 | 1.7 | 0.00 | 0.00 | 0.00 | 50 | 1013.4 |
| 20260906065822 | 87 | 225 | 0.9 | 0.9 | 0.00 | 0.00 | 0.00 | 50 | 1013.4 |
| 20260906064823 | 87 | 185 | 0.0 | 0.9 | 0.00 | 0.00 | 0.00 | 49 | 1013.3 |
| 20260906063823 | 87 | 223 | 0.9 | 1.7 | 0.00 | 0.00 | 0.00 | 49 | 1013.3 |
| 20260906062823 | 87 | 173 | 1.7 | 1.7 | 0.00 | 0.00 | 0.00 | 49 | 1013.4 |
| 20260906061823 | 87 | 127 | 0.9 | 1.7 | 0.00 | 0.00 | 0.00 | 50 | 1013.3 |
| 20260906060823 | 88 | 143 | 1.7 | 2.6 | 0.00 | 0.00 | 0.00 | 47 | 1013.4 |
| 20260906055823 | 88 | 172 | 2.6 | 2.6 | 0.00 | 0.00 | 0.00 | 47 | 1013.4 |
| 20260906054823 | 88 | 178 | 1.7 | 1.7 | 0.00 | 0.00 | 0.00 | 46 | 1013.3 |
| 20260906053823 | 89 | 233 | 0.9 | 1.7 | 0.00 | 0.00 | 0.00 | 46 | 1013.3 |
| 20260906052824 | 89 | 221 | 0.9 | 1.7 | 0.00 | 0.00 | 0.00 | 46 | 1013.2 |
| 20260906051824 | 89 | 221 | 0.9 | 1.7 | 0.00 | 0.00 | 0.00 | 46 | 1013.1 |
| 20260906050824 | 89 | 214 | 0.9 | 0.9 | 0.00 | 0.00 | 0.00 | 46 | 1013.1 |
| 20260906045824 | 89 | 204 | 1.7 | 1.7 | 0.00 | 0.00 | 0.00 | 46 | 1013.0 |
| 20260906044824 | 89 | 192 | 1.7 | 1.7 | 0.00 | 0.00 | 0.00 | 46 | 1013.0 |
| 20260906043826 | 89 | 188 | 1.7 | 1.7 | 0.00 | 0.00 | 0.00 | 46 | 1013.0 |
| 20260906042824 | 89 | 210 | 1.7 | 1.7 | 0.00 | 0.00 | 0.00 | 46 | 1013.1 |
| 20260906041824 | 90 | 203 | 0.0 | 0.9 | 0.00 | 0.00 | 0.00 | 45 | 1013.1 |
| 20260906040824 | 90 | 180 | 0.9 | 1.7 | 0.00 | 0.00 | 0.00 | 45 | 1013.1 |
| 20260906035824 | 90 | 187 | 0.9 | 1.7 | 0.00 | 0.00 | 0.00 | 44 | 1013.1 |
| 20260906034845 | 91 | 176 | 1.7 | 2.6 | 0.00 | 0.00 | 0.00 | 44 | 1013.2 |
| 20260906033825 | 91 | 171 | 1.7 | 2.6 | 0.00 | 0.00 | 0.00 | 44 | 1013.1 |
| 20260906032825 | 91 | 177 | 1.7 | 2.6 | 0.00 | 0.00 | 0.00 | 44 | 1013.0 |
| 20260906031825 | 91 | 164 | 1.7 | 1.7 | 0.00 | 0.00 | 0.00 | 43 | 1013.0 |
| 20260906030826 | 92 | 170 | 1.7 | 2.6 | 0.00 | 0.00 | 0.00 | 43 | 1013.0 |
| 20260906025826 | 92 | 175 | 1.7 | 2.6 | 0.00 | 0.00 | 0.00 | 43 | 1013.0 |
| 20260906024826 | 92 | 164 | 3.5 | 4.3 | 0.00 | 0.00 | 0.00 | 43 | 1012.8 |
| 20260906023826 | 92 | 167 | 2.6 | 3.5 | 0.00 | 0.00 | 0.00 | 42 | 1012.8 |
| 20260906022826 | 93 | 154 | 2.6 | 3.5 | 0.00 | 0.00 | 0.00 | 41 | 1012.7 |
| 20260906021826 | 94 | 141 | 2.6 | 3.5 | 0.00 | 0.00 | 0.00 | 41 | 1012.5 |
| 20260906020826 | 94 | 150 | 2.6 | 3.5 | 0.00 | 0.00 | 0.00 | 40 | 1012.4 |
| 20260906015826 | 94 | 145 | 1.7 | 1.7 | 0.00 | 0.00 | 0.00 | 40 | 1012.4 |
| 20260906014827 | 95 | 155 | 3.5 | 3.5 | 0.00 | 0.00 | 0.00 | 39 | 1012.3 |
| 20260906013827 | 95 | 153 | 1.7 | 2.6 | 0.00 | 0.00 | 0.00 | 39 | 1012.2 |
| 20260906012820 | 95 | 139 | 3.5 | 4.3 | 0.00 | 0.00 | 0.00 | 39 | 1012.1 |
| 20260906011819 | 95 | 141 | 2.6 | 5.2 | 0.00 | 0.00 | 0.00 | 39 | 1012.0 |
| 20260906010818 | 96 | 135 | 3.5 | 5.2 | 0.00 | 0.00 | 0.00 | 38 | 1012.0 |
| 20260906005818 | 96 | 148 | 3.5 | 5.2 | 0.00 | 0.00 | 0.00 | 37 | 1011.9 |
| 20260906004859 | 97 | 158 | 3.5 | 4.3 | 0.00 | 0.00 | 0.00 | 37 | 1011.8 |
| 20260906003839 | 97 | 149 | 3.5 | 5.2 | 0.00 | 0.00 | 0.00 | 36 | 1011.7 |
| 20260906002819 | 98 | 123 | 5.2 | 7.0 | 0.00 | 0.00 | 0.00 | 36 | 1011.7 |
| 20260906001839 | 98 | 150 | 6.1 | 7.0 | 0.00 | 0.00 | 0.00 | 35 | 1011.6 |
| 20260906000819 | 98 | 132 | 7.0 | 7.8 | 0.00 | 0.00 | 0.00 | 35 | 1011.6 |
| 20260905235820 | 98 | 156 | 5.2 | 6.1 | 0.00 | 0.00 | 0.00 | 35 | 1011.5 |
| 20260905234840 | 98 | 213 | 2.6 | 4.3 | 0.00 | 0.00 | 0.00 | 34 | 1011.5 |
| 20260905233819 | 99 | 166 | 7.8 | 10.4 | 0.00 | 0.00 | 0.00 | 35 | 1011.4 |
| 20260905232819 | 98 | 170 | 4.3 | 7.0 | 0.00 | 0.00 | 0.00 | 34 | 1011.3 |
| 20260905231817 | 98 | 210 | 3.5 | 6.1 | 0.00 | 0.00 | 0.00 | 34 | 1011.2 |
| 20260905230857 | 98 | 175 | 4.3 | 7.8 | 0.00 | 0.00 | 0.00 | 35 | 1011.2 |
| 20260905225820 | 98 | 184 | 7.0 | 9.6 | 0.00 | 0.00 | 0.00 | 34 | 1011.2 |
| 20260905224820 | 99 | 219 | 6.1 | 7.0 | 0.00 | 0.00 | 0.00 | 34 | 1011.2 |
| 20260905223820 | 99 | 206 | 7.0 | 9.6 | 0.00 | 0.00 | 0.00 | 34 | 1011.2 |
| 20260905222817 | 98 | 168 | 4.3 | 7.8 | 0.00 | 0.00 | 0.00 | 35 | 1011.2 |
| 20260905221817 | 98 | 157 | 5.2 | 7.8 | 0.00 | 0.00 | 0.00 | 35 | 1011.2 |
| 20260905220817 | 98 | 170 | 6.1 | 8.7 | 0.00 | 0.00 | 0.00 | 35 | 1011.3 |
| 20260905215821 | 98 | 161 | 5.2 | 7.0 | 0.00 | 0.00 | 0.00 | 34 | 1011.4 |
| 20260905214858 | 98 | 176 | 5.2 | 7.8 | 0.00 | 0.00 | 0.00 | 35 | 1011.5 |
| 20260905213818 | 98 | 172 | 6.1 | 8.7 | 0.00 | 0.00 | 0.00 | 35 | 1011.6 |
| 20260905212818 | 98 | 203 | 4.3 | 6.1 | 0.00 | 0.00 | 0.00 | 36 | 1011.7 |
| 20260905211818 | 98 | 184 | 3.5 | 6.1 | 0.00 | 0.00 | 0.00 | 36 | 1011.8 |
| 20260905210818 | 97 | 208 | 5.2 | 7.0 | 0.00 | 0.00 | 0.00 | 37 | 1012.0 |
| 20260905205839 | 98 | 160 | 7.0 | 9.6 | 0.00 | 0.00 | 0.00 | 36 | 1012.1 |
| 20260905204818 | 97 | 231 | 4.3 | 7.8 | 0.00 | 0.00 | 0.00 | 37 | 1012.2 |